星链-35254(STARLINK-35254)

导读

STARLINK-35254是美国于2025年9月19日发射的星链系列卫星,隶属于SpaceX公司的星链互联网星座项目。该项目旨在构建全球卫星互联网通信网络,为全球偏远及网络覆盖薄弱地区提供低延迟高速互联网服务,进一步扩充星链星座的在轨服务规模与全球覆盖能力。

基本信息
目录编号:
65674
目录名称:
STARLINK-35254
国际标识:
2025-211Y
轨道中心:
EARTH
卫星名称:
星链-35254
卫星全名:
星链-35254(STARLINK-35254)
卫星状态:
在轨 (已飞行267 天)
发射日期:
2025-09-19 UTC
国别 :
美国 (US)
星等 :
--
轨道信息
数据来源 国际轨道数据
星历时间: 2026-06-13T10:17:35+0800
11小时前
查看轨道信息
半长轴: 6927.617km
偏心率: 0.0002037
轨道倾角: 97.365°
近地点辐角 93.578°
升交点赤经 207.349°
平近点角 266.568°
近地点: 548.068km
远地点: 550.892km
周期: 95.639分钟
每日圈数: 15.056603
详细信息
固有亮度:
5
最大亮度:
2.5
卫星平台:
Starlink V1.0
覆盖范围:
全球
运营商:
太空探索技术公司
运营商所在国:
美国
制造商(研发单位):
太空探索技术公司
制造商所在国:
美国
使用方式:
暂无
卫星简介
Starlink 计划是 SpaceX 推出的全球卫星互联网项目,通过发射低轨道卫星,为全球尤其是偏远地区提供高速、低延迟的互联网服务。自 2019 年起,Starlink 已部署数千颗卫星,旨在缩小全球数字鸿沟,推动互联网普及。该项目还为军事、航空等行业提供通信支持,带来广泛经济效益。
2D轨道图
3D轨道图
轨道高度分析图
轨道倾角分析图
轨道综合分析图
查看轨道综合分析图